Location: Bougoudala
(13.2282°N, 4.9477°W)
Time: 01:46:49
(UTC+00:00)

Meteor 2-2 Rocket - Pass Details

Date: 29 January 2020
Orbit: 853 x 928 km, 81.3° (Epoch: 25 February)

Event Time Altitude Azimuth Distance (km) Brightness Sun altitude
Rises 19:34:37 0° 352° (N) 3,554 7.4 -18.5°
Reaches altitude 10° 19:37:07 10° 350° (N) 2,604 6.7 -19.1°
Maximum altitude 19:43:03 77° 265° (W) 931 4.5 -20.5°
Drops below altitude 10° 19:48:52 10° 180° (S) 2,555 6.9 -21.8°
Sets 19:51:18 0° 179° (S) 3,483 7.6 -22.4°
